Change the Weather History Date:

Saturday, July 6, 2013

  Actual Average Record
Temperature  
Mean Temperature 50 °F -  
Max Temperature 59 °F 58 °F 66 °F (2003)
Min Temperature 41 °F 42 °F 39 °F (2001)
Degree Days  
Heating Degree Days 15    
Moisture  
Dew Point 38 °F    
Average Humidity 66    
Maximum Humidity 87    
Minimum Humidity 45    
Precipitation  
Precipitation 0.00 in - - ()
Sea Level Pressure  
Sea Level Pressure 29.94 in    
Wind  
Wind Speed 6 mph (NNE)    
Max Wind Speed 10 mph    
Max Gust Speed 18 mph    
Visibility 10 miles    
Events      
Averages and records for this station are not official NWS values.
T = Trace of Precipitation, MM = Missing Value Source: NWS Daily Summary

Daily Weather History Graph

Daily Weather History Graph

Search for Another Location

Airport or City:

Trip Planner

Search our weather history database for the weather conditions in past years. The results will help you decide how hot, cold, wet, or windy it might be!

Date:

Astronomy

Jul. 06, 2013 Rise Set
Actual Time 4:14 AM AKDT 11:30 PM AKDT
Civil Twilight 2:25 AM AKDT 1:21 AM AKDT
Nautical Twilight Sun does not rise Sun does not rise
Astronomical Twilight Sun does not rise Sun does not rise
Moon 3:35 AM AKDT (7/6) 9:49 PM AKDT (7/6)
Length of Visible Light 22h 55m
Length of Day
19h 15m
Waning Crescent, 2% of the Moon is Illuminated
Jul 6
Waning Crescent
Jul 7
New
Jul 15
First Quarter
Jul 22
Full
Jul 29
Last Quarter

Hourly Weather History & Observations

Time (AKDT) Temp. Windchill Dew Point Humidity Pressure Visibility Wind Dir Wind Speed Gust Speed Precip Events Conditions
12:16 AM 44.6 °F 39.7 °F 37.4 °F 76% 30.01 in 10.0 mi WSW 9.2 mph - N/A   Overcast
12:36 AM 42.8 °F 37.5 °F 37.4 °F 81% 30.01 in 10.0 mi WSW 9.2 mph - N/A   Overcast
12:56 AM 42.8 °F 37.5 °F 37.4 °F 81% 30.01 in 10.0 mi WSW 9.2 mph - N/A   Overcast
1:16 AM 42.8 °F 37.5 °F 37.4 °F 81% 30.01 in 10.0 mi WSW 9.2 mph - N/A   Mostly Cloudy
1:36 AM 41.0 °F 34.7 °F 37.4 °F 87% 30.01 in 10.0 mi WSW 10.4 mph - N/A   Mostly Cloudy
1:56 AM 41.0 °F 34.7 °F 37.4 °F 87% 30.01 in 10.0 mi WSW 10.4 mph - N/A   Overcast
2:16 AM 41.0 °F 35.8 °F 37.4 °F 87% 30.01 in 10.0 mi West 8.1 mph - N/A   Overcast
2:36 AM 41.0 °F 35.8 °F 37.4 °F 87% 30.01 in 10.0 mi West 8.1 mph - N/A   Overcast
2:56 AM 41.0 °F 36.4 °F 37.4 °F 87% 30.01 in 10.0 mi West 6.9 mph - N/A   Overcast
3:16 AM 42.8 °F 38.0 °F 37.4 °F 81% 30.01 in 10.0 mi West 8.1 mph - N/A   Overcast
3:36 AM 42.8 °F 38.6 °F 37.4 °F 81% 30.01 in 10.0 mi West 6.9 mph - N/A   Overcast
3:56 AM 42.8 °F 38.6 °F 37.4 °F 81% 30.01 in 10.0 mi West 6.9 mph - N/A   Overcast
4:16 AM 42.8 °F 39.3 °F 37.4 °F 81% 30.00 in 10.0 mi West 5.8 mph - N/A   Overcast
4:36 AM 41.0 °F 36.4 °F 37.4 °F 87% 30.00 in 10.0 mi West 6.9 mph - N/A   Overcast
4:56 AM 42.8 °F 39.3 °F 37.4 °F 81% 30.00 in 10.0 mi WNW 5.8 mph - N/A   Mostly Cloudy
5:16 AM 42.8 °F 41.1 °F 37.4 °F 81% 30.00 in 10.0 mi West 3.5 mph - N/A   Overcast
5:36 AM 42.8 °F - 37.4 °F 81% 30.00 in 10.0 mi Calm Calm - N/A   Overcast
5:56 AM 42.8 °F 40.1 °F 37.4 °F 81% 30.00 in 10.0 mi NE 4.6 mph - N/A   Overcast
6:16 AM 42.8 °F 41.1 °F 37.4 °F 81% 30.00 in 10.0 mi NE 3.5 mph - N/A   Scattered Clouds
6:36 AM 42.8 °F - 37.4 °F 81% 30.00 in 10.0 mi Calm Calm - N/A   Mostly Cloudy
6:56 AM 42.8 °F - 37.4 °F 81% 30.00 in 10.0 mi Calm Calm - N/A   Scattered Clouds
7:16 AM 44.6 °F 43.1 °F 37.4 °F 76% 30.00 in 10.0 mi ENE 3.5 mph - N/A   Scattered Clouds
7:36 AM 44.6 °F 43.1 °F 37.4 °F 76% 30.00 in 10.0 mi ENE 3.5 mph - N/A   Mostly Cloudy
7:56 AM 44.6 °F 42.2 °F 37.4 °F 76% 30.00 in 10.0 mi NE 4.6 mph - N/A   Overcast
8:16 AM 44.6 °F 42.2 °F 37.4 °F 76% 30.00 in 10.0 mi NE 4.6 mph - N/A   Overcast
8:36 AM 46.4 °F 45.2 °F 39.2 °F 76% 30.00 in 10.0 mi ENE 3.5 mph - N/A   Overcast
8:56 AM 46.4 °F 45.2 °F 39.2 °F 76% 30.00 in 10.0 mi East 3.5 mph - N/A   Overcast
9:16 AM 48.2 °F - 39.2 °F 71% 30.00 in 10.0 mi Calm Calm - N/A   Overcast
9:36 AM 48.2 °F - 39.2 °F 71% 29.99 in 10.0 mi Calm Calm - N/A   Overcast
9:56 AM 50.0 °F - 39.2 °F 66% 29.99 in 10.0 mi Calm Calm - N/A   Mostly Cloudy
10:16 AM 53.6 °F - 39.2 °F 58% 29.99 in 10.0 mi NNE 3.5 mph - N/A   Mostly Cloudy
10:36 AM 55.4 °F - 41.0 °F 58% 29.98 in 10.0 mi NE 3.5 mph - N/A   Mostly Cloudy
10:56 AM 53.6 °F - 39.2 °F 58% 29.98 in 10.0 mi NNE 3.5 mph - N/A   Mostly Cloudy
11:16 AM 51.8 °F - 39.2 °F 62% 29.97 in 10.0 mi Calm Calm - N/A   Overcast
11:36 AM 51.8 °F - 39.2 °F 62% 29.97 in 10.0 mi Calm Calm - N/A   Overcast
11:56 AM 53.6 °F - 39.2 °F 58% 29.97 in 10.0 mi ESE 3.5 mph - N/A   Overcast
12:16 PM 53.6 °F - 39.2 °F 58% 29.97 in 9.0 mi ESE 4.6 mph - N/A   Overcast
12:36 PM 53.6 °F - 39.2 °F 58% 29.96 in 10.0 mi Calm Calm - N/A   Overcast
12:56 PM 55.4 °F - 39.2 °F 54% 29.96 in 10.0 mi ESE 3.5 mph - N/A   Overcast
1:16 PM 55.4 °F - 39.2 °F 54% 29.96 in 10.0 mi SSE 4.6 mph - N/A   Overcast
1:36 PM 55.4 °F - 39.2 °F 54% 29.95 in 10.0 mi Calm Calm - N/A   Overcast
1:56 PM 57.2 °F - 39.2 °F 51% 29.95 in 10.0 mi NE 6.9 mph - N/A   Overcast
2:16 PM 57.2 °F - 39.2 °F 51% 29.94 in 10.0 mi NE 6.9 mph - N/A   Overcast
2:36 PM 57.2 °F - 39.2 °F 51% 29.94 in 10.0 mi NE 6.9 mph - N/A   Overcast
2:56 PM 57.2 °F - 39.2 °F 51% 29.93 in 10.0 mi East 3.5 mph - N/A   Overcast
3:16 PM 57.2 °F - 39.2 °F 51% 29.92 in 10.0 mi East 6.9 mph - N/A   Overcast
3:36 PM 57.2 °F - 37.4 °F 48% 29.92 in 10.0 mi ENE 5.8 mph - N/A   Overcast
3:56 PM 57.2 °F - 37.4 °F 48% 29.91 in 10.0 mi Calm Calm - N/A   Mostly Cloudy
4:16 PM 57.2 °F - 37.4 °F 48% 29.91 in 10.0 mi East 4.6 mph - N/A   Overcast
4:36 PM 57.2 °F - 37.4 °F 48% 29.90 in 10.0 mi East 6.9 mph - N/A   Overcast
4:56 PM 59.0 °F - 37.4 °F 45% 29.89 in 10.0 mi SSE 5.8 mph - N/A   Mostly Cloudy
5:16 PM 59.0 °F - 37.4 °F 45% 29.89 in 10.0 mi South 3.5 mph - N/A   Overcast
5:36 PM 57.2 °F - 37.4 °F 48% 29.88 in 7.0 mi Calm Calm - N/A   Overcast
5:56 PM 57.2 °F - 37.4 °F 48% 29.87 in 7.0 mi East 5.8 mph - N/A   Overcast
6:16 PM 57.2 °F - 37.4 °F 48% 29.86 in 10.0 mi East 4.6 mph - N/A   Overcast
6:36 PM 57.2 °F - 37.4 °F 48% 29.86 in 9.0 mi ESE 4.6 mph - N/A   Overcast
6:56 PM 57.2 °F - 41.0 °F 55% 29.86 in 10.0 mi WSW 3.5 mph - N/A   Overcast
7:16 PM 57.2 °F - 37.4 °F 48% 29.85 in 10.0 mi Calm Calm - N/A   Scattered Clouds
7:36 PM 55.4 °F - 39.2 °F 54% 29.85 in 10.0 mi WNW 8.1 mph - N/A   Scattered Clouds
7:56 PM 55.4 °F - 41.0 °F 58% 29.85 in 10.0 mi WNW 10.4 mph 18.4 mph N/A   Overcast
8:16 PM 55.4 °F - 41.0 °F 58% 29.85 in 10.0 mi NW 8.1 mph - N/A   Overcast
8:36 PM 53.6 °F - 42.8 °F 67% 29.84 in 10.0 mi NNW 9.2 mph - N/A   Overcast
8:56 PM 53.6 °F - 42.8 °F 67% 29.84 in 10.0 mi NNW 4.6 mph - N/A   Mostly Cloudy
9:16 PM 53.6 °F - 39.2 °F 58% 29.84 in 10.0 mi NNW 5.8 mph - N/A   Partly Cloudy
9:36 PM 53.6 °F - 39.2 °F 58% 29.83 in 10.0 mi North 3.5 mph - N/A   Clear
9:56 PM 53.6 °F - 39.2 °F 58% 29.83 in 10.0 mi East 5.8 mph - N/A   Clear
10:16 PM 51.8 °F - 37.4 °F 58% 29.83 in 10.0 mi NNE 3.5 mph - N/A   Clear
10:36 PM 51.8 °F - 37.4 °F 58% 29.82 in 10.0 mi NE 5.8 mph - N/A   Clear
10:56 PM 50.0 °F - 39.2 °F 66% 29.82 in 10.0 mi NNE 5.8 mph - N/A   Clear
11:16 PM 48.2 °F - 39.2 °F 71% 29.82 in 10.0 mi NNE 5.8 mph - N/A   Clear
11:36 PM 48.2 °F - 37.4 °F 66% 29.81 in 10.0 mi NNE 4.6 mph - N/A   Clear
11:56 PM 44.6 °F 40.2 °F 35.6 °F 71% 29.81 in 10.0 mi NE 8.1 mph - N/A   Partly Cloudy